Miscellaneous Local Product
Issued by NWS North Platte, NE

Home | Current Version | Previous Version | Text Only | Print | Product List | Glossary On
Versions: 1 2 3 4 5 6 7 8 9 10 11 12 13 14 15 16 17 18 19 20 21 22 23 24 25 26 27 28 29 30 31 32 33 34 35 36 37 38 39 40 41 42 43 44 45 46 47 48 49 50
000
AXUS43 KLBF 270610
MISLBF


WESTERN AND NORTH CENTRAL NEBRASKA HOURLY WEATHER ROUNDUP
NATIONAL WEATHER SERVICE NORTH PLATTE NE
100 AM CDT THU APR 27 2017

NOTE: "FAIR" INDICATES FEW OR NO CLOUDS BELOW 12,000 FEET WITH NO
SIGNIFICANT WEATHER AND/OR OBSTRUCTIONS TO VISIBILITY.

NOTE: STATIONS NOT REPORTING VARIABLES SUCH AS SKY/WEATHER OR
PRESSURE ARE PROVIDED BY RAWS AND APRS NETWORKS AND ARE NOT UNDER
NATIONAL WEATHER SERVICE QUALITY CONTROL.

...OBSERVATIONS IN AND NEAR THE EASTERN PANHANDLE OF NEBRASKA...

CITY           SKY/WX    TMP DP  RH WIND       PRES   REMARKS
PINE RIDGE     CLEAR     27  26  96 CALM      29.70F
CHADRON        CLOUDY    30  28  92 N3        29.70F
ALLIANCE       CLEAR     30  27  88 E6        29.68F WCI  24
SIDNEY         CLOUDY    40  38  93 S7        29.69F
CRESCENT LAKE    N/A     36  30  80 E5          N/A  WCI  32
$$

...OBSERVATIONS IN NORTHERN NEBRASKA AND FAR SOUTHERN SOUTH DAKOTA...

CITY           SKY/WX    TMP DP  RH WIND       PRES   REMARKS
WINNER         FAIR      29  24  82 E3        29.73R
VALENTINE      CLEAR     28  23  81 W7        29.72R WCI  21
THEDFORD       CLEAR     28  27  93 CALM      29.72F
AINSWORTH      CLEAR     31  29  90 NW3       29.71S
O`NEILL        PTCLDY    29  25  88 N5        29.73S WCI  23
ORD            CLEAR     31  26  82 NW5       29.71S WCI  26
BROKEN BOW     CLEAR     29  25  85 CALM      29.72S
VALENTINE NWR    N/A     30  27  88 W5          N/A  WCI  25
HALSEY           N/A     30  27  88 W3          N/A
BUTTE            N/A     29  26  87 CALM        N/A
CHAMBERS         N/A     28  24  84 CALM        N/A
EWING            N/A     31  28  89 CALM        N/A
$$

...OBSERVATIONS IN SOUTHWEST NEBRASKA AND FAR NORTHEAST COLORADO...

CITY           SKY/WX    TMP DP  RH WIND       PRES   REMARKS
HOLYOKE        FAIR      43  34  70 SE5       29.71S
IMPERIAL       CLOUDY    39  31  72 SE3       29.72F
OGALLALA       CLOUDY    42  33  70 SE3       29.72R
NORTH PLATTE   PTCLDY    34  30  85 NE6       29.72S WCI  29
MCCOOK         CLOUDY    35  27  72 CALM      29.74R
LEXINGTON      CLOUDY    33  28  82 NE3       29.73S
STAPLETON        N/A     29  26  88 CALM        N/A
GOTHENBURG       N/A     36  28  72 N3          N/A
CALLAWAY         N/A     31  28  88 N6          N/A  WCI  25
$$

...OBSERVATIONS IN CENTRAL LINCOLN COUNTY AREA...

CITY           SKY/WX    TMP DP  RH WIND       PRES   REMARKS
N.P. AIRPORT   PTCLDY    34  30  85 NE6       29.72S WCI  29
N.P. DOWNTOWN    N/A     37  30  75 CALM        N/A
N.P. SOUTHEAST   N/A     36  29  75 CALM        N/A
N.P. HILLCREST   N/A     35  30  82 CALM        N/A
$$

...SOME OBSERVATIONS FROM AROUND THE REGION...

CITY           SKY/WX    TMP DP  RH WIND       PRES   REMARKS
DENVER         CLOUDY    38  31  76 CALM      29.68F
LIMON          CLEAR     37  34  89 SE6       29.72F WCI  32
ASPEN          CLOUDY    33  29  85 S5        29.74F WCI  29
LARAMIE        CLOUDY    34  31  88 SW15      29.67F WCI  24
CASPER         CLOUDY    37  34  89 SW5       29.60F WCI  33
CHEYENNE       CLOUDY    42  31  64 W9        29.67F
SCOTTSBLUFF    CLOUDY    40  37  89 E8        29.66F WCI  34
GRAND ISLAND   CLEAR     31  29  92 W7        29.73S WCI  24
OMAHA          CLOUDY    40  31  70 NW13      29.69S WCI  32
SIOUX FALLS    CLOUDY    32  26  78 NW14      29.65F WCI  22
PIERRE         CLEAR     26  22  84 CALM      29.73R
RAPID CITY     CLEAR     29  26  89 W5        29.69F WCI  24
BISMARCK       CLOUDY    36  28  73 N5        29.77F WCI  32
KANSAS CITY    CLOUDY    43  34  70 NW7       29.66S
HILL CITY      CLEAR     34  30  85 CALM      29.76R
WICHITA        CLEAR     43  38  82 NW5       29.74R
DODGE CITY     CLEAR     39  33  79 S7        29.74F WCI  34
OKLAHOMA CITY  PTCLDY    44  42  93 S5        29.75S
DALLAS         CLEAR     51  46  83 SW6       29.78F
AMARILLO       CLOUDY    44  36  73 SE8       29.78S
$$




USA.gov is the U.S. government's official web portal to all federal, state and local government web resources and services.